This demonstration page uses our WeatherBlox Daily Observations layout. Learn more.

Left ArrowRight Arrow

41.86663, -103.66717

Hourly Observations for June 14, 2020

Temp ( °F °C ) Dew Point ( °F °C ) Humidity (%) Winds ( mph kmh ) Pressure ( in mb ) Visibility ( mi km ) Precip ( " mm )
12:53 am 00:53 Clear 69 20.6 55 12.8 61 61 ESE 5 7 29.65 1004 10 16 0.00 0.00
1:53 am 01:53 Mostly Clear 68 20 56 13.3 65 65 W 7 11 29.65 1004 10 16 0.00 0.00
2:53 am 02:53 Mostly Clear 67 19.4 57 13.9 71 71 ESE 5 7 29.64 1004 10 16 0.00 0.00
3:53 am 03:53 Clear 66 18.9 56 13.3 70 70 E 7 11 29.60 1003 10 16 0.00 0.00
4:53 am 04:53 Mostly Clear with Light Rain 67 19.4 42 5.6 41 41 undefined N/A 29.60 1003 10 16 0.00 0.00
5:53 am 05:53 Sunny 67 19.4 54 12.2 63 63 SE 8 13 29.63 1003 10 16 0.00 0.00
6:53 am 06:53 Sunny 70 21.1 54 12.2 57 57 E 10 17 29.65 1004 10 16 0.00 0.00
7:53 am 07:53 Sunny 72 22.2 54 12.2 53 53 E 3 6 29.69 1005 10 16 0.00 0.00
8:53 am 08:53 Sunny 82 27.8 50 10 33 33 SSW 7 11 29.67 1005 10 16 0.00 0.00
9:53 am 09:53 Sunny 91 32.8 40 4.4 17 17 SW 20 31 29.64 1004 10 16 0.00 0.00
10:53 am 10:53 Sunny 93 33.9 31 -0.6 11 11 WSW 20 31 29.64 1004 10 16 0.00 0.00
11:53 am 11:53 Sunny 95 35 32 0 11 11 WSW 20 31 29.65 1004 10 16 0.00 0.00
12:53 pm 12:53 Sunny 95 35 33 0.6 11 11 SW 17 28 29.65 1004 10 16 0.00 0.00
1:53 pm 13:53 Sunny 94 34.4 34 1.1 12 12 SSW 13 20 29.65 1004 10 16 0.00 0.00
2:53 pm 14:53 Sunny 95 35 34 1.1 12 12 W 8 13 29.65 1004 10 16 0.00 0.00
3:53 pm 15:53 Sunny 93 33.9 36 2.2 13 13 SSW 9 15 29.65 1004 10 16 0.00 0.00
4:53 pm 16:53 Sunny 96 35.6 36 2.2 12 12 SSE 10 17 29.63 1003 10 16 0.00 0.00
5:53 pm 17:53 Sunny 92 33.3 37 2.8 14 14 SSW 8 13 29.63 1004 10 16 0.00 0.00
6:53 pm 18:53 Sunny 93 33.9 38 3.3 14 14 W 6 9 29.63 1003 10 16 0.00 0.00
7:53 pm 19:53 Sunny 83 28.3 44 6.7 25 25 N 7 11 29.66 1004 9 14 0.00 0.00
8:53 pm 20:53 Clear 73 22.8 45 7.2 37 37 N 8 13 29.67 1005 10 16 0.00 0.00
9:53 pm 21:53 Clear 69 20.6 44 6.7 41 41 N 7 11 29.67 1005 10 16 0.00 0.00
10:53 pm 22:53 Clear 64 17.8 45 7.2 50 50 NNW 5 7 29.69 1006 10 16 0.00 0.00
11:53 pm 23:53 Clear 63 17.2 47 8.3 56 56 ESE 3 6 29.72 1007 10 16 0.00 0.00

Powered by AerisWeather